Location: St Paul
(44.9440°N, 93.0930°W)
Time: 09:23:59
(UTC-06:00)

OTV 5 (USA 277) - Visible Passes

Search period start: 11 December 2017 00:00
Search period end: 21 December 2017 00:00
Orbit: 404 x 417 km, 43.0° (Epoch: 07 September)

Date Brightness Start Highest point End Pass type
(mag) Time Alt. Az. Time Alt. Az. Time Alt. Az.
11 Dec ? 17:15:34 10° W 17:18:55 62° S 17:22:16 10° ESE visible
11 Dec ? 18:52:56 10° W 18:55:25 30° SW 18:55:25 30° SW visible
12 Dec ? 18:01:48 10° W 18:05:01 40° SSW 18:07:02 19° SE visible
13 Dec ? 17:10:43 10° W 17:14:00 49° SSW 17:17:17 10° ESE visible
13 Dec ? 18:48:31 10° WSW 18:50:54 18° SSW 18:51:35 17° SSW visible
14 Dec ? 17:57:10 10° W 17:59:58 24° SSW 18:02:46 10° SSE visible
15 Dec ? 17:05:58 10° W 17:09:01 32° SSW 17:12:04 10° SE visible
16 Dec ? 17:53:13 10° WSW 17:54:48 13° SSW 17:56:23 10° S visible
